[[{"header":{"parameterUnit":"m.s-1","parameterCategory":1,"la1":30.2991,"la2":30.254,"lo1":-89.0895,"lo2":-89.0444,"dy":0.0017,"dx":0.0017,"nx":28,"ny":28,"refTime":"2024-10-16T21:00:00:Z","depth":0,"parameterNumber":2,"parameterNumberName":"U-component_of_WINDS"},"data":[0,0,0,0,0,0,0,0,0,0,0,0,0,0,0,0,0,0,0,0,0,0,0,0,0,0,0,0,0,0,0,0,0,0,0,0,0,0,0,0,0,0,0,0,0,0,0,0,0,0,0,0,0,0,0,0,0,0,-5.8361,-5.8362,0,-5.8408,-5.8409,-5.8409,-5.8208,-5.8202,-5.8196,-5.819,-5.8239,-5.8246,-5.8253,0,0,0,0,0,0,0,0,0,0,0,0,0,-5.8096,-5.8102,-5.8361,-5.8362,-5.8362,-5.8408,-5.8409,-5.8409,-5.8209,-5.8201,-5.8194,-5.8187,-5.8237,-5.8245,-5.8253,0,0,0,0,0,0,0,0,0,0,0,0,0,-5.8184,-5.8104,-5.8361,-5.8267,-5.826,-5.8408,-5.8409,-5.8409,-5.821,-5.8201,-5.8192,-5.8184,-5.8235,-5.8245,-5.8255,-5.8495,0,0,-5.8286,-5.829,0,0,0,0,0,0,0,0,-5.818,-5.8194,-5.8281,-5.8274,-5.8266,-5.8293,-5.8333,-5.8438,-5.8212,-5.8229,-5.819,-5.818,-5.8265,-5.8272,-5.83,-5.8498,-5.85,-5.8287,-5.8293,-5.8297,-5.83,0,0,0,0,0,0,0,-5.8174,-5.8191,-5.8379,-5.8282,-5.8273,-5.8223,-5.8226,-5.8352,-5.8296,-5.8227,-5.8212,-5.8221,-5.8259,-5.8291,-5.83,-5.8501,-5.8287,-5.8296,-5.8302,-5.8306,-5.8895,-5.8904,0,0,0,0,0,0,-5.818,-5.8187,-5.8378,-5.8381,-5.82,-5.8235,-5.8238,-5.8293,-5.8294,-5.8286,-5.8228,-5.8211,-5.8278,-5.8288,-5.8301,-5.858,-5.8297,-5.8307,-5.8313,-5.8886,-5.8897,-5.8907,0,0,0,0,0,0,-5.8175,-5.8199,-5.8376,-5.828,-5.8299,-5.8249,-5.8313,-5.8299,-5.833,-5.8295,-5.8284,-5.8271,-5.8271,-5.8286,-5.8448,-5.8579,-5.8312,-5.8321,-5.8874,-5.8889,-5.8902,-5.9143,0,0,0,0,0,0,-5.8168,-5.8198,-5.829,-5.8284,-5.8305,-5.8523,-5.8321,-5.8306,-5.8348,-5.8327,-5.8332,-5.8325,-5.8265,-5.8434,-5.8458,-5.8588,-5.8329,-5.8862,-5.8881,-5.8898,-5.9123,-5.9163,-5.9198,0,0,0,0,0,-5.816,-5.8356,-5.8295,-5.8319,-5.8418,-5.8531,-5.8543,-5.847,-5.836,-5.8451,-5.8428,-5.8325,-5.8561,-5.8452,-5.8478,-5.8613,-5.8854,-5.8876,-5.8896,-5.9106,-5.9156,-5.9197,0,0,0,0,0,0,-5.8379,-5.8354,-5.8286,-5.8487,-5.8513,-5.8497,-5.8609,-5.8526,-5.8584,-5.8561,-5.8468,-5.8471,-5.8648,-5.8647,-5.8525,-5.8845,-5.8688,-5.8716,-5.8839,-5.8886,-5.8923,-5.8918,-5.8337,0,0,0,0,0,-5.8451,-5.8546,-5.8518,-5.8698,-5.8714,-5.8661,-5.8707,-5.8648,-5.8672,-5.8682,-5.867,-5.8697,-5.8776,-5.8831,-5.8903,-5.9122,-5.9119,-5.9228,-5.9266,-5.9297,-5.9321,-5.9434,-5.9482,-5.8978,-5.8977,-5.8977,0,0,-5.86,-5.8598,-5.8663,-5.8742,-5.8755,-5.8854,-5.8671,-5.8784,-5.8856,-5.8699,-5.8849,-5.8843,-5.8866,-5.9057,-5.9141,-5.9061,-5.946,-5.9324,-5.9349,-5.9357,-5.9461,-5.9509,-5.9551,-5.8992,-5.899,-5.8987,0,0,-5.8922,-5.8931,-5.908,-5.9097,-5.9119,-5.9082,-5.9118,-5.9115,-5.9104,-5.9254,-5.9138,-5.9222,-5.9363,-5.9383,-5.9412,-5.9742,-5.9648,-5.9768,-5.9964,-6.0075,-6.0115,-6.015,-6.0265,-6.0307,-5.9793,-5.9793,-5.9794,0,-5.9105,-5.9249,-5.9168,-5.9288,-5.9325,-5.9187,-5.9337,-5.9357,-5.9403,-5.9431,-5.9342,-5.9513,-5.952,-5.9712,-5.9792,-5.9821,-5.9858,-5.9766,-6.0116,-6.015,-6.0181,-6.0289,-6.0333,-5.9807,-5.9806,-5.9804,-5.9803,0,-5.9471,-5.9573,-5.9691,-5.9737,-5.9787,-5.9923,-5.9861,-5.9922,-5.986,-5.9832,-5.9985,-5.9988,-6.0056,-6.0098,-6.0039,-6.0283,-6.0232,-6.0132,-5.9972,-6.0245,-6.0345,-6.0386,-5.9828,-5.9823,-5.9818,-5.9815,0,0,-5.9932,-5.993,-5.9974,-5.9992,-6.0007,-6.0083,-6.0212,-6.0278,-6.0331,-6.0368,-6.0471,-6.0593,-6.0499,-6.0532,-6.0474,-6.0572,-6.083,-6.0459,-6.0458,-6.0525,-6.1095,-6.1169,-6.1218,-6.0769,-6.0776,-6.0783,-6.1092,0,-6.0245,-6.0462,-6.0393,-6.0613,-6.0705,-6.0575,-6.0687,-6.0707,-6.0685,-6.0759,-6.0734,-6.0821,-6.0692,-6.071,-6.0802,-6.0779,-6.0942,-6.0756,-6.0863,-6.0868,-6.0858,-6.1271,-6.135,-6.1642,-6.1131,-6.1138,-6.1143,0,-6.0639,-6.0689,-6.0919,-6.0915,-6.0951,-6.1052,-6.1106,-6.118,-6.12,-6.1177,-6.1214,-6.1135,-6.1259,-6.1102,-6.1271,-6.1146,-6.1186,-6.1181,-6.1191,-6.1195,-6.102,-6.1285,-6.1733,-6.1776,-6.1204,-6.1199,-6.1195,0,-6.0948,-6.1073,-6.1226,-6.1246,-6.1247,-6.132,-6.1324,-6.1336,-6.138,-6.1428,-6.1455,-6.1518,-6.1551,-6.1602,-6.1541,-6.1432,-6.1719,-6.1557,-6.1701,-6.1703,-6.1765,-6.1762,-6.2224,-6.1797,-6.1796,-6.1795,-6.1794,0,-6.1303,-6.1448,-6.1364,-6.1458,-6.1616,-6.1535,-6.1693,-6.1682,-6.1694,-6.1782,-6.1675,-6.1761,-6.1677,-6.1755,-6.1709,-6.1854,-6.1871,-6.1855,-6.184,-6.1863,-6.1865,-6.1885,-6.1862,-6.1807,-6.1804,-6.1802,-6.18,0,-6.1674,-6.1624,-6.1781,-6.1769,-6.1769,-6.1886,-6.1875,-6.1961,-6.1931,-6.2044,-6.2066,-6.2019,-6.2105,-6.205,-6.2138,-6.2106,-6.2296,-6.2255,-6.2289,-6.2277,-6.2423,-6.2409,-6.2913,-6.2973,-6.2511,-6.2515,-6.2519,0,-6.1902,-6.201,-6.2009,-6.2061,-6.2071,-6.2156,-6.22,-6.2124,-6.2174,-6.2205,-6.2287,-6.2364,-6.242,-6.2564,-6.2537,-6.2603,-6.2561,-6.2733,-6.257,-6.2588,-6.256,-6.2553,-6.2562,-6.2765,-6.277,-6.2775,-6.2778,0,-6.2312,-6.2281,-6.2349,-6.2408,-6.2463,-6.2506,-6.254,-6.2589,-6.2513,-6.2575,-6.266,-6.2705,-6.2793,-6.287,-6.2925,-6.2928,-6.2841,-6.283,-6.2866,-6.2889,-6.2903,-6.2894,-6.2375,-6.2818,-6.2814,-6.2811,-6.2809,-6.2808,-6.2616,-6.2705,-6.2717,-6.2796,-6.2813,-6.2848,-6.2927,-6.2906,-6.2977,-6.3042,-6.2994,-6.3095,-6.3111,-6.3176,-6.319,-6.3268,-6.3198,-6.3252,-6.3265,-6.3278,-6.3297,-6.2894,-6.3279,-6.3277,-6.3276,-6.3275,-6.3274,0,-6.3017,-6.3018,-6.3091,-6.3142,-6.3203,-6.3116,-6.3149,-6.3206,-6.3297,-6.332,-6.3378,-6.3476,-6.355,-6.3529,-6.3595,-6.3661,-6.3623,-6.3681,-6.3673,-6.3675,-6.3358,-6.3318,-6.3711,-6.3711,-6.3711,-6.371,-6.371,-6.371,-6.3232,-6.3377,-6.3349,-6.3501,-6.3502,-6.36,-6.3626,-6.3657,-6.3674,-6.3788,-6.3848,-6.3835,-6.3839,-6.3905,-6.3968,-6.396,-6.3988,-6.406,-6.4038,-6.3741,-6.3698,-6.3657,-6.3619,-6.4068,-6.4068,-6.4348,-6.435,-6.4352]},{"header":{"parameterUnit":"m.s-1","parameterCategory":1,"la1":30.2991,"la2":30.254,"lo1":-89.0895,"lo2":-89.0444,"dy":0.0017,"dx":0.0017,"nx":28,"ny":28,"refTime":"2024-10-16T21:00:00:Z","depth":0,"parameterNumber":3,"parameterNumberName":"V-component_of_WINDS"},"data":[0,0,0,0,0,0,0,0,0,0,0,0,0,0,0,0,0,0,0,0,0,0,0,0,0,0,0,0,0,0,0,0,0,0,0,0,0,0,0,0,0,0,0,0,0,0,0,0,0,0,0,0,0,0,0,0,0,0,-2.2567,-2.2567,0,-2.2588,-2.2588,-2.2589,-2.2613,-2.2613,-2.2614,-2.2614,-2.2633,-2.2634,-2.2634,0,0,0,0,0,0,0,0,0,0,0,0,0,-2.2544,-2.2544,-2.2567,-2.2567,-2.2568,-2.2588,-2.2588,-2.2589,-2.2613,-2.2613,-2.2614,-2.2614,-2.2633,-2.2634,-2.2634,0,0,0,0,0,0,0,0,0,0,0,0,0,-2.2558,-2.2545,-2.2567,-2.2582,-2.2584,-2.2588,-2.2588,-2.2589,-2.2613,-2.2613,-2.2614,-2.2615,-2.2633,-2.2634,-2.2634,-2.2624,0,0,-2.2635,-2.2635,0,0,0,0,0,0,0,0,-2.2558,-2.2559,-2.258,-2.2581,-2.2583,-2.2599,-2.2587,-2.2601,-2.2613,-2.2602,-2.2614,-2.2615,-2.2621,-2.2623,-2.2625,-2.2625,-2.2626,-2.2635,-2.2635,-2.2635,-2.2635,0,0,0,0,0,0,0,-2.2557,-2.2558,-2.2575,-2.258,-2.2582,-2.2587,-2.2589,-2.259,-2.2608,-2.2603,-2.2605,-2.2607,-2.2622,-2.2625,-2.2626,-2.2626,-2.2635,-2.2635,-2.2635,-2.2635,-2.2615,-2.2615,0,0,0,0,0,0,-2.2554,-2.2557,-2.2575,-2.2576,-2.2572,-2.2587,-2.259,-2.2593,-2.2608,-2.2611,-2.2606,-2.2608,-2.2624,-2.2625,-2.2627,-2.2614,-2.2635,-2.2635,-2.2635,-2.2616,-2.2615,-2.2615,0,0,0,0,0,0,-2.2553,-2.2555,-2.2574,-2.2567,-2.257,-2.2587,-2.259,-2.2593,-2.2596,-2.2611,-2.2614,-2.2606,-2.2625,-2.2626,-2.2624,-2.2615,-2.2635,-2.2635,-2.2617,-2.2616,-2.2615,-2.259,0,0,0,0,0,0,-2.2552,-2.2555,-2.2552,-2.2567,-2.257,-2.2572,-2.259,-2.2593,-2.2597,-2.2599,-2.2611,-2.2614,-2.2625,-2.2623,-2.2624,-2.2616,-2.2636,-2.2618,-2.2616,-2.2615,-2.2592,-2.2588,-2.2585,0,0,0,0,0,-2.2552,-2.2545,-2.2552,-2.2554,-2.2568,-2.2572,-2.2573,-2.2587,-2.2596,-2.2593,-2.2602,-2.2614,-2.2616,-2.2623,-2.2624,-2.2616,-2.2618,-2.2617,-2.2615,-2.2593,-2.2589,-2.2586,0,0,0,0,0,0,-2.2529,-2.2547,-2.2555,-2.2554,-2.2561,-2.2576,-2.2573,-2.2583,-2.2587,-2.2589,-2.2605,-2.2608,-2.2603,-2.2609,-2.2617,-2.2605,-2.2619,-2.2617,-2.2601,-2.2598,-2.2595,-2.2593,-2.2636,0,0,0,0,0,-2.2523,-2.2526,-2.2542,-2.2538,-2.2541,-2.2556,-2.2558,-2.2568,-2.2576,-2.2579,-2.2588,-2.2595,-2.2597,-2.2598,-2.2601,-2.2593,-2.2594,-2.2587,-2.2584,-2.2582,-2.258,-2.2573,-2.257,-2.261,-2.261,-2.261,0,0,-2.2512,-2.2523,-2.2523,-2.2534,-2.2541,-2.2541,-2.2559,-2.2559,-2.2559,-2.2579,-2.2577,-2.2584,-2.2592,-2.2586,-2.2584,-2.2591,-2.2569,-2.258,-2.2577,-2.2577,-2.2571,-2.2568,-2.2564,-2.2609,-2.2609,-2.2609,0,0,-2.2493,-2.2502,-2.2499,-2.2505,-2.2515,-2.2524,-2.2523,-2.2536,-2.2541,-2.254,-2.2553,-2.2553,-2.2557,-2.2561,-2.2564,-2.2543,-2.2553,-2.2543,-2.2526,-2.252,-2.2517,-2.2514,-2.2504,-2.2501,-2.2542,-2.2542,-2.2542,0,-2.2478,-2.248,-2.2496,-2.2495,-2.2498,-2.2515,-2.2511,-2.2516,-2.2526,-2.2527,-2.2535,-2.2538,-2.2545,-2.2539,-2.2534,-2.2536,-2.2534,-2.2542,-2.2516,-2.2514,-2.2511,-2.2502,-2.2498,-2.254,-2.254,-2.254,-2.2541,0,-2.246,-2.2462,-2.2458,-2.2467,-2.2469,-2.2467,-2.248,-2.248,-2.2489,-2.2497,-2.2493,-2.2502,-2.2505,-2.2505,-2.2514,-2.2499,-2.2503,-2.2513,-2.2527,-2.2506,-2.2497,-2.2494,-2.2538,-2.2539,-2.2539,-2.2539,0,0,-2.2428,-2.2444,-2.2442,-2.2445,-2.2456,-2.2456,-2.2453,-2.2457,-2.2456,-2.2462,-2.2458,-2.246,-2.2468,-2.2471,-2.2481,-2.2475,-2.2454,-2.2486,-2.2486,-2.2478,-2.2436,-2.2427,-2.2423,-2.2462,-2.2461,-2.2461,-2.2435,0,-2.2409,-2.2406,-2.2418,-2.2411,-2.2411,-2.2426,-2.2423,-2.2428,-2.2435,-2.2435,-2.2442,-2.2442,-2.2454,-2.2456,-2.2451,-2.2458,-2.2446,-2.246,-2.2456,-2.2456,-2.2453,-2.2419,-2.241,-2.2385,-2.2432,-2.2431,-2.2431,0,-2.2387,-2.2391,-2.2384,-2.2392,-2.2393,-2.239,-2.2392,-2.2393,-2.2398,-2.2403,-2.2405,-2.2415,-2.2411,-2.2424,-2.2417,-2.2426,-2.2425,-2.2428,-2.2427,-2.2427,-2.2441,-2.2415,-2.2378,-2.2374,-2.2426,-2.2426,-2.2427,0,-2.2362,-2.2365,-2.236,-2.2363,-2.2373,-2.237,-2.2374,-2.238,-2.2381,-2.2383,-2.2383,-2.2384,-2.2385,-2.2385,-2.2394,-2.2404,-2.2385,-2.24,-2.2387,-2.2386,-2.2382,-2.2382,-2.2342,-2.2384,-2.2384,-2.2384,-2.2384,0,-2.2339,-2.2333,-2.2349,-2.2346,-2.2339,-2.2352,-2.2344,-2.235,-2.2354,-2.2351,-2.2365,-2.2361,-2.2375,-2.2372,-2.2379,-2.2371,-2.2371,-2.2374,-2.2375,-2.2372,-2.2371,-2.237,-2.2372,-2.2383,-2.2383,-2.2383,-2.2383,0,-2.231,-2.232,-2.2316,-2.2325,-2.2327,-2.2322,-2.2329,-2.2325,-2.2332,-2.2328,-2.2327,-2.2338,-2.2335,-2.2344,-2.2344,-2.2348,-2.2335,-2.234,-2.2333,-2.2334,-2.232,-2.232,-2.2277,-2.2271,-2.2318,-2.2318,-2.2317,0,-2.2294,-2.229,-2.2298,-2.2297,-2.23,-2.2299,-2.2299,-2.231,-2.231,-2.2313,-2.2309,-2.2307,-2.2306,-2.2301,-2.2307,-2.2306,-2.231,-2.2295,-2.231,-2.2305,-2.2307,-2.2307,-2.2305,-2.2292,-2.2291,-2.2291,-2.229,0,-2.2264,-2.2269,-2.2269,-2.2269,-2.2269,-2.227,-2.2272,-2.227,-2.2282,-2.228,-2.2277,-2.2276,-2.2274,-2.2272,-2.2271,-2.2274,-2.2283,-2.2285,-2.2282,-2.2277,-2.2272,-2.2272,-2.2323,-2.2286,-2.2287,-2.2287,-2.2287,-2.2287,-2.224,-2.2236,-2.224,-2.2239,-2.2241,-2.2242,-2.2238,-2.2244,-2.2242,-2.2241,-2.2248,-2.2242,-2.2245,-2.2245,-2.2246,-2.2241,-2.2248,-2.2244,-2.2242,-2.2241,-2.2237,-2.2274,-2.2242,-2.2242,-2.2242,-2.2242,-2.2242,0,-2.2209,-2.2212,-2.2211,-2.2212,-2.221,-2.2219,-2.2221,-2.2218,-2.2214,-2.2215,-2.2214,-2.2208,-2.2205,-2.221,-2.2207,-2.2202,-2.2206,-2.2201,-2.22,-2.22,-2.2233,-2.2235,-2.2197,-2.2197,-2.2197,-2.2197,-2.2197,-2.2197,-2.2193,-2.2185,-2.219,-2.2182,-2.2185,-2.218,-2.218,-2.218,-2.2181,-2.2174,-2.2171,-2.2175,-2.2177,-2.2174,-2.217,-2.2172,-2.2169,-2.2162,-2.2164,-2.2194,-2.2198,-2.2203,-2.2205,-2.2161,-2.2161,-2.2132,-2.2132,-2.2132]}]]